User: anonymous
Location: Sun City Center
(27.6996°N, 82.3528°W)
Time: 06:21:50
(UTC-04:00)
Language:

Cosmos 2084 Rocket - Orbit

View from above orbital plane
View from above orbital plane
View from above satellite
View from above satellite

Ground track
Ground track

The orbit data is extracted from the following two-line orbital elements,

1 20666U 90055D   14265.41105382  .00001587  00000-0  17684-3 0  2949
2 20666 062.7873 239.1189 0065903 000.1000 000.0094 14.89828518312230
Epoch (UTC): 22 September 2014 09:51:55
Eccentricity: 0.0065903
inclination: 62.7873°
perigee height: 552 km
apogee height: 644 km
right ascension of ascending node: 239.1189°
argument of perigee: 0.1000°
revolutions per day: 14.89828518
mean anomaly at epoch: 0.0094°
orbit number at epoch: 31223

The dashed part of the orbit path shows where the satellite is in the earth's shadow,  

DLR